This is the latest recevied weather packets stored in our database for station/object KO6HRZ. If no packets are shown the sender has not sent any weather packets the latest 10 day(s).
| Time | Temp. | Humidity | Pressure | Rain* | Wind** | Luminosity | Snow |
|---|---|---|---|---|---|---|---|
| 1787959990 | 25.56° C | 48% | 1012.1 hPa | 0 mm | - | 132 W/m² | - |
| 1787959386 | 27.22° C | 42% | 1012.1 hPa | 0 mm | - | 114 W/m² | - |
| 1787958781 | 28.33° C | 41% | 1012.1 hPa | 0 mm | - | 114 W/m² | - |
| 1787958179 | 29.44° C | 34% | 1012.3 hPa | 0 mm | - | 141 W/m² | - |
| 1787957578 | 30° C | 31% | 1012.3 hPa | 0 mm | - | 180 W/m² | - |
| 1787956973 | 30° C | 29% | 1012.2 hPa | 0 mm | - | 240 W/m² | - |
| 1787956374 | 29.44° C | 29% | 1012.2 hPa | 0 mm | - | 236 W/m² | - |
| 1787955770 | 30° C | 30% | 1012.2 hPa | 0 mm | - | 213 W/m² | - |
| 1787955170 | 30° C | 31% | 1012.4 hPa | 0 mm | - | 217 W/m² | - |
| 1787954568 | 30° C | 28% | 1012.4 hPa | 0 mm | - | 261 W/m² | - |
| 1787953968 | 30° C | 31% | 1012.9 hPa | 0 mm | - | 320 W/m² | - |
| 1787953368 | 30° C | 31% | 1012.9 hPa | 0 mm | - | 333 W/m² | - |
| 1787952765 | 30° C | 29% | 1013 hPa | 0 mm | - | 347 W/m² | - |
| 1787952163 | 28.89° C | 28% | 1013.2 hPa | 0 mm | - | 301 W/m² | - |
| 1787951563 | 28.89° C | 32% | 1013.5 hPa | 0 mm | - | 279 W/m² | - |
| 1787950960 | 28.89° C | 29% | 1013.5 hPa | 0 mm | - | 288 W/m² | - |
| 1787950358 | 28.89° C | 30% | 1013.6 hPa | 0 mm | - | 253 W/m² | - |
| 1787949755 | 28.89° C | 31% | 1013.5 hPa | 0 mm | - | 280 W/m² | - |
| 1787949155 | 28.33° C | 30% | 1013.4 hPa | 0 mm | - | 291 W/m² | - |
| 1787948551 | 28.89° C | 33% | 1013.4 hPa | 0 mm | - | 343 W/m² | - |
| 1787947951 | 28.89° C | 34% | 1013.4 hPa | 0 mm | - | 286 W/m² | - |
| 1787947351 | 28.89° C | 34% | 1013.5 hPa | 0 mm | - | 395 W/m² | - |
| 1787946750 | 29.44° C | 35% | 1013.4 hPa | 0 mm | - | 272 W/m² | - |
| 1787946149 | 28.89° C | 34% | 1013.5 hPa | 0 mm | - | 337 W/m² | - |
| 1787945545 | 28.89° C | 37% | 1013.8 hPa | 0 mm | - | 353 W/m² | - |
* Rain latest hour (hover to see other rain measurements)
** Current wind speed in m/s (hover to see current wind gust speed)